| time (UTC) | temp F | wind direction | speed knots | gust knots | rain 1hr in | rain 24hr in | rain mn in | humidity % | barometer mb |
| 20260831053849 | 73 | 135 | 2.6 | 5.2 | 0.00 | 0.00 | 0.00 | ||
| 20260831053447 | 72 | 135 | 3.5 | 6.1 | 0.00 | 0.00 | 0.00 | ||
| 20260831052644 | 71 | 135 | 0.0 | 1.7 | 0.00 | 0.00 | 0.00 | ||
| 20260831052243 | 71 | 124 | 1.7 | 5.2 | 0.00 | 0.00 | 0.00 | ||
| 20260831051840 | 72 | 135 | 1.7 | 3.5 | 0.00 | 0.00 | 0.00 | ||
| 20260831051438 | 72 | 133 | 3.5 | 6.1 | 0.00 | 0.00 | 0.00 | ||
| 20260831051037 | 73 | 135 | 2.6 | 5.2 | 0.00 | 0.00 | 0.00 | ||
| 20260831050635 | 72 | 135 | 1.7 | 3.5 | 0.00 | 0.00 | 0.00 | ||
| 20260831050225 | 72 | 111 | 0.9 | 2.6 | 0.00 | 0.00 | 0.00 | ||
| 20260831045824 | 70 | 111 | 0.9 | 1.7 | 0.00 | 0.00 | 0.00 | ||
| 20260831045423 | 70 | 111 | 1.7 | 1.7 | 0.00 | 0.00 | 0.00 | ||
| 20260831045022 | 70 | 111 | 1.7 | 2.6 | 0.00 | 0.00 | 0.00 | ||
| 20260831044620 | 70 | 129 | 2.6 | 5.2 | 0.00 | 0.00 | 0.00 | ||
| 20260831044218 | 70 | 115 | 2.6 | 5.2 | 0.00 | 0.00 | 0.00 | ||
| 20260831043815 | 70 | 121 | 4.3 | 7.0 | 0.00 | 0.00 | 0.00 | ||
| 20260831043414 | 69 | 131 | 3.5 | 5.2 | 0.00 | 0.00 | 0.00 | ||
| 20260831043013 | 68 | 152 | 2.6 | 5.2 | 0.00 | 0.00 | 0.00 | ||
| 20260831042610 | 67 | 157 | 1.7 | 3.5 | 0.00 | 0.00 | 0.00 | ||
| 20260831042202 | 68 | 157 | 2.6 | 4.3 | 0.00 | 0.00 | 0.00 | ||
| 20260831041801 | 68 | 157 | 2.6 | 5.2 | 0.00 | 0.00 | 0.00 | ||
| 20260831041400 | 68 | 157 | 3.5 | 4.3 | 0.00 | 0.00 | 0.00 | ||
| 20260831040957 | 67 | 157 | 2.6 | 4.3 | 0.00 | 0.00 | 0.00 | ||
| 20260831040556 | 67 | 157 | 2.6 | 4.3 | 0.00 | 0.00 | 0.00 | ||
| 20260831040155 | 68 | 157 | 2.6 | 5.2 | 0.00 | 0.00 | 0.00 | ||
| 20260831035753 | 68 | 157 | 2.6 | 3.5 | 0.00 | 0.00 | 0.00 | ||
| 20260831035351 | 67 | 157 | 2.6 | 3.5 | 0.00 | 0.00 | 0.00 | ||
| 20260831034950 | 67 | 157 | 2.6 | 3.5 | 0.00 | 0.00 | 0.00 | ||
| 20260831034548 | 68 | 157 | 3.5 | 4.3 | 0.00 | 0.00 | 0.00 | ||
| 20260831034140 | 68 | 157 | 2.6 | 4.3 | 0.00 | 0.00 | 0.00 | ||
| 20260831033738 | 68 | 157 | 2.6 | 4.3 | 0.00 | 0.00 | 0.00 | ||
| 20260831033336 | 68 | 157 | 4.3 | 7.0 | 0.00 | 0.00 | 0.00 | ||
| 20260831032935 | 68 | 157 | 5.2 | 7.0 | 0.00 | 0.00 | 0.00 | ||
| 20260831032533 | 68 | 156 | 4.3 | 7.8 | 0.00 | 0.00 | 0.00 | ||
| 20260831032132 | 69 | 157 | 4.3 | 7.0 | 0.00 | 0.00 | 0.00 | ||
| 20260831031729 | 69 | 158 | 4.3 | 7.0 | 0.00 | 0.00 | 0.00 | ||
| 20260831031328 | 68 | 156 | 4.3 | 7.8 | 0.00 | 0.00 | 0.00 | ||
| 20260831030926 | 68 | 157 | 4.3 | 7.0 | 0.00 | 0.00 | 0.00 | ||
| 20260831030524 | 68 | 158 | 4.3 | 7.0 | 0.00 | 0.00 | 0.00 | ||
| 20260831030115 | 68 | 158 | 4.3 | 6.1 | 0.00 | 0.00 | 0.00 | ||
| 20260831025713 | 68 | 154 | 4.3 | 7.0 | 0.00 | 0.00 | 0.00 | ||
| 20260831025312 | 68 | 157 | 3.5 | 5.2 | 0.00 | 0.00 | 0.00 | ||
| 20260831024911 | 68 | 157 | 3.5 | 5.2 | 0.00 | 0.00 | 0.00 | ||
| 20260831024508 | 68 | 157 | 3.5 | 4.3 | 0.00 | 0.00 | 0.00 | ||
| 20260831024107 | 68 | 157 | 2.6 | 3.5 | 0.00 | 0.00 | 0.00 | ||
| 20260831023705 | 68 | 157 | 2.6 | 3.5 | 0.00 | 0.00 | 0.00 | ||
| 20260831023304 | 68 | 157 | 2.6 | 3.5 | 0.00 | 0.00 | 0.00 | ||
| 20260831022903 | 68 | 157 | 3.5 | 4.3 | 0.00 | 0.00 | 0.00 | ||
| 20260831022500 | 68 | 157 | 2.6 | 3.5 | 0.00 | 0.00 | 0.00 | ||
| 20260831022052 | 69 | 157 | 3.5 | 4.3 | 0.00 | 0.00 | 0.00 | ||
| 20260831021650 | 69 | 157 | 3.5 | 6.1 | 0.00 | 0.00 | 0.00 | ||
| 20260831021249 | 69 | 159 | 4.3 | 7.0 | 0.00 | 0.00 | 0.00 | ||
| 20260831020847 | 68 | 154 | 4.3 | 7.8 | 0.00 | 0.00 | 0.00 | ||
| 20260831020445 | 69 | 166 | 3.5 | 5.2 | 0.00 | 0.00 | 0.00 | ||
| 20260831020044 | 68 | 165 | 4.3 | 6.1 | 0.00 | 0.00 | 0.00 | ||
| 20260831015642 | 68 | 157 | 4.3 | 6.1 | 0.00 | 0.00 | 0.00 | ||
| 20260831015240 | 69 | 157 | 3.5 | 5.2 | 0.00 | 0.00 | 0.00 | ||
| 20260831014839 | 68 | 157 | 3.5 | 5.2 | 0.00 | 0.00 | 0.00 | ||
| 20260831014437 | 69 | 157 | 4.3 | 5.2 | 0.00 | 0.00 | 0.00 | ||
| 20260831014030 | 69 | 152 | 4.3 | 7.0 | 0.00 | 0.00 | 0.00 | ||
| 20260831013627 | 68 | 152 | 4.3 | 7.0 | 0.00 | 0.00 | 0.00 | ||
| 20260831013226 | 69 | 157 | 3.5 | 5.2 | 0.00 | 0.00 | 0.00 | ||
| 20260831012825 | 69 | 148 | 3.5 | 5.2 | 0.00 | 0.00 | 0.00 | ||
| 20260831012423 | 69 | 148 | 5.2 | 7.8 | 0.00 | 0.00 | 0.00 | ||
| 20260831012022 | 69 | 145 | 5.2 | 7.0 | 0.00 | 0.00 | 0.00 | ||
| 20260831011619 | 69 | 148 | 4.3 | 7.0 | 0.00 | 0.00 | 0.00 | ||
| 20260831011218 | 69 | 141 | 4.3 | 7.8 | 0.00 | 0.00 | 0.00 | ||
| 20260831010817 | 69 | 150 | 4.3 | 7.0 | 0.00 | 0.00 | 0.00 | ||
| 20260831010415 | 69 | 150 | 5.2 | 7.8 | 0.00 | 0.00 | 0.00 | ||
| 20260831010006 | 69 | 154 | 3.5 | 7.0 | 0.00 | 0.00 | 0.00 | ||
| 20260831005604 | 69 | 157 | 4.3 | 7.8 | 0.00 | 0.00 | 0.00 | ||
| 20260831005203 | 69 | 157 | 3.5 | 5.2 | 0.00 | 0.00 | 0.00 | ||
| 20260831004802 | 69 | 157 | 3.5 | 5.2 | 0.00 | 0.00 | 0.00 | ||
| 20260831004359 | 69 | 151 | 4.3 | 5.2 | 0.00 | 0.00 | 0.00 | ||
| 20260831003958 | 69 | 135 | 3.5 | 5.2 | 0.00 | 0.00 | 0.00 | ||
| 20260831003556 | 69 | 139 | 3.5 | 5.2 | 0.00 | 0.00 | 0.00 | ||
| 20260831003155 | 69 | 153 | 4.3 | 7.8 | 0.00 | 0.00 | 0.00 | ||
| 20260831002753 | 69 | 157 | 3.5 | 6.1 | 0.00 | 0.00 | 0.00 | ||
| 20260831002351 | 69 | 152 | 4.3 | 6.1 | 0.00 | 0.00 | 0.00 | ||
| 20260831001943 | 69 | 156 | 4.3 | 7.0 | 0.00 | 0.00 | 0.00 | ||
| 20260831001541 | 69 | 156 | 4.3 | 6.1 | 0.00 | 0.00 | 0.00 | ||
| 20260831001141 | 69 | 157 | 3.5 | 4.3 | 0.00 | 0.00 | 0.00 | ||
| 20260831000738 | 69 | 148 | 2.6 | 4.3 | 0.00 | 0.00 | 0.00 | ||
| 20260831000336 | 69 | 157 | 2.6 | 4.3 | 0.00 | 0.00 | 0.00 | ||
| 20260830235936 | 69 | 157 | 2.6 | 5.2 | 0.00 | 0.00 | 0.00 | ||
| 20260830235534 | 70 | 157 | 4.3 | 5.2 | 0.00 | 0.00 | 0.00 | ||
| 20260830235132 | 69 | 146 | 3.5 | 5.2 | 0.00 | 0.00 | 0.00 | ||
| 20260830234731 | 70 | 135 | 2.6 | 3.5 | 0.00 | 0.00 | 0.00 | ||
| 20260830234328 | 70 | 157 | 3.5 | 5.2 | 0.00 | 0.00 | 0.00 | ||
| 20260830233920 | 70 | 135 | 3.5 | 4.3 | 0.00 | 0.00 | 0.00 | ||
| 20260830233517 | 70 | 135 | 2.6 | 4.3 | 0.00 | 0.00 | 0.00 | ||
| 20260830233116 | 71 | 135 | 2.6 | 4.3 | 0.00 | 0.00 | 0.00 | ||
| 20260830232716 | 70 | 157 | 3.5 | 5.2 | 0.00 | 0.00 | 0.00 | ||
| 20260830232313 | 71 | 137 | 3.5 | 6.1 | 0.00 | 0.00 | 0.00 | ||
| 20260830231911 | 71 | 141 | 2.6 | 3.5 | 0.00 | 0.00 | 0.00 | ||
| 20260830231509 | 71 | 135 | 2.6 | 3.5 | 0.00 | 0.00 | 0.00 | ||
| 20260830231108 | 71 | 141 | 2.6 | 5.2 | 0.00 | 0.00 | 0.00 | ||
| 20260830230707 | 71 | 135 | 1.7 | 3.5 | 0.00 | 0.00 | 0.00 | ||
| 20260830230305 | 71 | 135 | 1.7 | 3.5 | 0.00 | 0.00 | 0.00 | ||
| 20260830225856 | 71 | 135 | 1.7 | 2.6 | 0.00 | 0.00 | 0.00 | ||
| 20260830225454 | 70 | 135 | 1.7 | 3.5 | 0.00 | 0.00 | 0.00 | ||
| 20260830225053 | 70 | 135 | 0.9 | 1.7 | 0.00 | 0.00 | 0.00 | ||
| 20260830224652 | 70 | 135 | 0.9 | 1.7 | 0.00 | 0.00 | 0.00 | ||
| 20260830224249 | 71 | 135 | 0.9 | 2.6 | 0.00 | 0.00 | 0.00 | ||
| 20260830223848 | 70 | 135 | 1.7 | 1.7 | 0.00 | 0.00 | 0.00 | ||
| 20260830223446 | 70 | 135 | 1.7 | 2.6 | 0.00 | 0.00 | 0.00 | ||
| 20260830223045 | 69 | 135 | 2.6 | 3.5 | 0.00 | 0.00 | 0.00 | ||
| 20260830222241 | 70 | 157 | 1.7 | 3.5 | 0.00 | 0.00 | 0.00 | ||
| 20260830221833 | 69 | 157 | 1.7 | 2.6 | 0.00 | 0.00 | 0.00 | ||
| 20260830221431 | 69 | 157 | 1.7 | 2.6 | 0.00 | 0.00 | 0.00 | ||
| 20260830221029 | 69 | 157 | 1.7 | 2.6 | 0.00 | 0.00 | 0.00 | ||
| 20260830220628 | 70 | 172 | 1.7 | 2.6 | 0.00 | 0.00 | 0.00 | ||
| 20260830220226 | 71 | 202 | 1.7 | 3.5 | 0.00 | 0.00 | 0.00 | ||
| 20260830215825 | 70 | 220 | 2.6 | 5.2 | 0.00 | 0.00 | 0.00 | ||
| 20260830215423 | 69 | 265 | 3.5 | 4.3 | 0.00 | 0.00 | 0.00 | ||
| 20260830215021 | 68 | 270 | 3.5 | 4.3 | 0.00 | 0.00 | 0.00 | ||
| 20260830214620 | 69 | 256 | 3.5 | 4.3 | 0.00 | 0.00 | 0.00 | ||
| 20260830214218 | 68 | 269 | 4.3 | 7.0 | 0.00 | 0.00 | 0.00 | ||
| 20260830213810 | 69 | 297 | 4.3 | 6.1 | 0.00 | 0.00 | 0.00 | ||
| 20260830213407 | 73 | 166 | 1.7 | 4.3 | 0.00 | 0.00 | 0.00 | ||
| 20260830213006 | 72 | 135 | 3.5 | 5.2 | 0.00 | 0.00 | 0.00 | ||
| 20260830212605 | 72 | 135 | 3.5 | 7.0 | 0.00 | 0.00 | 0.00 | ||
| 20260830212203 | 73 | 135 | 5.2 | 7.8 | 0.00 | 0.00 | 0.00 | ||
| 20260830211801 | 73 | 135 | 4.3 | 6.1 | 0.00 | 0.00 | 0.00 | ||
| 20260830211400 | 73 | 143 | 5.2 | 7.8 | 0.00 | 0.00 | 0.00 | ||
| 20260830210558 | 73 | 143 | 5.2 | 8.7 | 0.00 | 0.00 | 0.00 | ||
| 20260830210155 | 73 | 140 | 5.2 | 7.0 | 0.00 | 0.00 | 0.00 | ||
| 20260830205747 | 73 | 146 | 5.2 | 7.8 | 0.00 | 0.00 | 0.00 | ||
| 20260830205345 | 73 | 145 | 4.3 | 6.1 | 0.00 | 0.00 | 0.00 | ||
| 20260830204944 | 72 | 150 | 4.3 | 7.0 | 0.00 | 0.00 | 0.00 | ||
| 20260830204543 | 72 | 156 | 4.3 | 6.1 | 0.00 | 0.00 | 0.00 | ||
| 20260830204140 | 72 | 148 | 3.5 | 6.1 | 0.00 | 0.00 | 0.00 | ||
| 20260830203739 | 73 | 135 | 3.5 | 5.2 | 0.00 | 0.00 | 0.00 | ||
| 20260830203337 | 73 | 137 | 3.5 | 5.2 | 0.00 | 0.00 | 0.00 | ||
| 20260830202936 | 73 | 138 | 4.3 | 6.1 | 0.00 | 0.00 | 0.00 | ||
| 20260830202534 | 73 | 153 | 4.3 | 6.1 | 0.00 | 0.00 | 0.00 | ||
| 20260830202132 | 73 | 139 | 3.5 | 6.1 | 0.00 | 0.00 | 0.00 | ||
| 20260830201724 | 73 | 135 | 3.5 | 6.1 | 0.00 | 0.00 | 0.00 | ||
| 20260830201322 | 73 | 151 | 3.5 | 5.2 | 0.00 | 0.00 | 0.00 | ||
| 20260830200920 | 73 | 135 | 3.5 | 5.2 | 0.00 | 0.00 | 0.00 | ||
| 20260830200519 | 73 | 135 | 3.5 | 7.0 | 0.00 | 0.00 | 0.00 | ||
| 20260830200117 | 72 | 135 | 2.6 | 3.5 | 0.00 | 0.00 | 0.00 | ||
| 20260830195716 | 73 | 135 | 2.6 | 3.5 | 0.00 | 0.00 | 0.00 | ||
| 20260830195313 | 73 | 135 | 2.6 | 4.3 | 0.00 | 0.00 | 0.00 | ||
| 20260830194912 | 74 | 114 | 1.7 | 3.5 | 0.00 | 0.00 | 0.00 | ||
| 20260830194511 | 73 | 135 | 1.7 | 1.7 | 0.00 | 0.00 | 0.00 | ||
| 20260830194110 | 74 | 135 | 2.6 | 4.3 | 0.00 | 0.00 | 0.00 | ||
| 20260830193702 | 74 | 135 | 2.6 | 4.3 | 0.00 | 0.00 | 0.00 | ||
| 20260830193259 | 74 | 130 | 3.5 | 6.1 | 0.00 | 0.00 | 0.00 | ||
| 20260830192858 | 74 | 130 | 3.5 | 5.2 | 0.00 | 0.00 | 0.00 | ||
| 20260830192457 | 74 | 135 | 3.5 | 5.2 | 0.00 | 0.00 | 0.00 | ||
| 20260830192055 | 74 | 136 | 2.6 | 4.3 | 0.00 | 0.00 | 0.00 | ||
| 20260830191653 | 75 | 135 | 3.5 | 5.2 | 0.00 | 0.00 | 0.00 | ||
| 20260830190850 | 75 | 135 | 2.6 | 3.5 | 0.00 | 0.00 | 0.00 | ||
| 20260830190449 | 75 | 157 | 3.5 | 5.2 | 0.00 | 0.00 | 0.00 | ||
| 20260830190046 | 75 | 157 | 1.7 | 3.5 | 0.00 | 0.00 | 0.00 | ||
| 20260830185638 | 76 | 157 | 1.7 | 2.6 | 0.00 | 0.00 | 0.00 | ||
| 20260830185236 | 75 | 157 | 2.6 | 4.3 | 0.00 | 0.00 | 0.00 | ||
| 20260830184835 | 75 | 175 | 1.7 | 2.6 | 0.00 | 0.00 | 0.00 | ||
| 20260830184433 | 75 | 180 | 2.6 | 3.5 | 0.00 | 0.00 | 0.00 | ||
| 20260830184031 | 76 | 180 | 0.9 | 2.6 | 0.00 | 0.00 | 0.00 | ||
| 20260830183630 | 75 | 180 | 1.7 | 2.6 | 0.00 | 0.00 | 0.00 | ||
| 20260830183228 | 75 | 180 | 1.7 | 1.7 | 0.00 | 0.00 | 0.00 | ||
| 20260830182827 | 75 | 180 | 1.7 | 2.6 | 0.00 | 0.00 | 0.00 | ||
| 20260830182425 | 75 | 180 | 1.7 | 2.6 | 0.00 | 0.00 | 0.00 | ||
| 20260830182023 | 75 | 188 | 2.6 | 3.5 | 0.00 | 0.00 | 0.00 | ||
| 20260830181615 | 75 | 202 | 2.6 | 2.6 | 0.00 | 0.00 | 0.00 | ||
| 20260830181213 | 76 | 202 | 1.7 | 2.6 | 0.00 | 0.00 | 0.00 | ||
| 20260830180811 | 76 | 206 | 2.6 | 3.5 | 0.00 | 0.00 | 0.00 | ||
| 20260830180410 | 76 | 225 | 0.9 | 1.7 | 0.00 | 0.00 | 0.00 | ||
| 20260830180008 | 76 | 225 | 0.9 | 1.7 | 0.00 | 0.00 | 0.00 | ||
| 20260830175607 | 78 | 225 | 1.7 | 2.6 | 0.00 | 0.00 | 0.00 | ||
| 20260830175204 | 78 | 225 | 0.9 | 1.7 | 0.00 | 0.00 | 0.00 | ||
| 20260830174803 | 79 | 225 | 1.7 | 2.6 | 0.00 | 0.00 | 0.00 | ||
| 20260830174402 | 79 | 225 | 2.6 | 3.5 | 0.00 | 0.00 | 0.00 | ||
| 20260830174001 | 79 | 248 | 2.6 | 4.3 | 0.00 | 0.00 | 0.00 | ||
| 20260830173551 | 79 | 248 | 2.6 | 3.5 | 0.00 | 0.00 | 0.00 | ||
| 20260830173150 | 79 | 248 | 2.6 | 4.3 | 0.00 | 0.00 | 0.00 | ||
| 20260830172749 | 79 | 266 | 2.6 | 4.3 | 0.00 | 0.00 | 0.00 | ||
| 20260830172347 | 80 | 270 | 2.6 | 3.5 | 0.00 | 0.00 | 0.00 | ||
| 20260830171945 | 80 | 265 | 2.6 | 5.2 | 0.00 | 0.00 | 0.00 | ||
| 20260830171543 | 80 | 272 | 3.5 | 5.2 | 0.00 | 0.00 | 0.00 | ||
| 20260830171141 | 80 | 271 | 3.5 | 5.2 | 0.00 | 0.00 | 0.00 | ||
| 20260830170740 | 80 | 269 | 4.3 | 5.2 | 0.00 | 0.00 | 0.00 | ||
| 20260830170339 | 81 | 261 | 4.3 | 5.2 | 0.00 | 0.00 | 0.00 | ||
| 20260830165936 | 81 | 254 | 4.3 | 7.0 | 0.00 | 0.00 | 0.00 | ||
| 20260830165528 | 81 | 255 | 5.2 | 7.0 | 0.00 | 0.00 | 0.00 | ||
| 20260830165127 | 83 | 254 | 4.3 | 6.1 | 0.00 | 0.00 | 0.00 | ||
| 20260830164726 | 84 | 256 | 4.3 | 7.0 | 0.00 | 0.00 | 0.00 | ||
| 20260830164323 | 85 | 260 | 3.5 | 6.1 | 0.00 | 0.00 | 0.00 | ||
| 20260830163922 | 86 | 253 | 2.6 | 6.1 | 0.00 | 0.00 | 0.00 | ||
| 20260830163521 | 86 | 263 | 3.5 | 6.1 | 0.00 | 0.00 | 0.00 | ||
| 20260830163119 | 86 | 255 | 5.2 | 7.8 | 0.00 | 0.00 | 0.00 | ||
| 20260830162717 | 87 | 255 | 3.5 | 7.0 | 0.00 | 0.00 | 0.00 | ||
| 20260830162316 | 87 | 269 | 5.2 | 8.7 | 0.00 | 0.00 | 0.00 | ||
| 20260830161914 | 87 | 270 | 2.6 | 4.3 | 0.00 | 0.00 | 0.00 | ||
| 20260830161506 | 86 | 267 | 4.3 | 7.0 | 0.00 | 0.00 | 0.00 | ||
| 20260830161104 | 86 | 269 | 4.3 | 7.8 | 0.00 | 0.00 | 0.00 | ||
| 20260830160702 | 85 | 260 | 4.3 | 7.8 | 0.00 | 0.00 | 0.00 | ||
| 20260830160301 | 84 | 258 | 5.2 | 7.0 | 0.00 | 0.00 | 0.00 | ||
| 20260830155859 | 84 | 268 | 4.3 | 6.1 | 0.00 | 0.00 | 0.00 | ||
| 20260830155458 | 83 | 264 | 5.2 | 7.8 | 0.00 | 0.00 | 0.00 | ||
| 20260830155055 | 83 | 256 | 7.8 | 11.3 | 0.00 | 0.00 | 0.00 | ||
| 20260830154754 | 83 | 255 | 7.0 | 10.4 | 0.00 | 0.00 | 0.00 | ||
| 20260830154654 | 83 | 255 | 7.0 | 10.4 | 0.00 | 0.00 | 0.00 | ||
| 20260830154253 | 83 | 240 | 6.1 | 8.7 | 0.00 | 0.00 | 0.00 | ||
| 20260830153851 | 83 | 258 | 7.0 | 9.6 | 0.00 | 0.00 | 0.00 | ||
| 20260830153442 | 83 | 266 | 7.0 | 10.4 | 0.00 | 0.00 | 0.00 | ||
| 20260830153040 | 83 | 261 | 7.0 | 8.7 | 0.00 | 0.00 | 0.00 | ||
| 20260830152639 | 83 | 263 | 3.5 | 6.1 | 0.00 | 0.00 | 0.00 | ||
| 20260830152238 | 83 | 270 | 7.8 | 13.0 | 0.00 | 0.00 | 0.00 | ||
| 20260830151835 | 83 | 269 | 6.1 | 8.7 | 0.00 | 0.00 | 0.00 | ||
| 20260830151434 | 83 | 247 | 5.2 | 7.8 | 0.00 | 0.00 | 0.00 | ||
| 20260830151033 | 84 | 248 | 5.2 | 8.7 | 0.00 | 0.00 | 0.00 | ||
| 20260830150632 | 84 | 257 | 7.0 | 8.7 | 0.00 | 0.00 | 0.00 | ||
| 20260830150231 | 84 | 235 | 5.2 | 8.7 | 0.00 | 0.00 | 0.00 | ||
| 20260830145828 | 84 | 254 | 7.0 | 11.3 | 0.00 | 0.00 | 0.00 | ||
| 20260830145420 | 84 | 223 | 4.3 | 7.8 | 0.00 | 0.00 | 0.00 | ||
| 20260830145018 | 84 | 251 | 5.2 | 7.8 | 0.00 | 0.00 | 0.00 | ||
| 20260830144617 | 84 | 244 | 7.0 | 10.4 | 0.00 | 0.00 | 0.00 | ||
| 20260830144215 | 84 | 269 | 4.3 | 7.8 | 0.00 | 0.00 | 0.00 | ||
| 20260830143813 | 83 | 252 | 6.1 | 9.6 | 0.00 | 0.00 | 0.00 | ||
| 20260830143412 | 83 | 245 | 6.1 | 10.4 | 0.00 | 0.00 | 0.00 | ||
| 20260830143010 | 84 | 262 | 4.3 | 10.4 | 0.00 | 0.00 | 0.00 | ||
| 20260830142608 | 84 | 254 | 6.1 | 9.6 | 0.00 | 0.00 | 0.00 | ||
| 20260830142207 | 84 | 248 | 7.8 | 12.2 | 0.00 | 0.00 | 0.00 | ||
| 20260830141805 | 84 | 246 | 7.0 | 10.4 | 0.00 | 0.00 | 0.00 | ||
| 20260830141357 | 84 | 244 | 7.0 | 10.4 | 0.00 | 0.00 | 0.00 | ||
| 20260830140954 | 84 | 244 | 7.0 | 11.3 | 0.00 | 0.00 | 0.00 | ||
| 20260830140553 | 84 | 252 | 7.0 | 10.4 | 0.00 | 0.00 | 0.00 | ||
| 20260830140152 | 85 | 242 | 4.3 | 7.8 | 0.00 | 0.00 | 0.00 | ||
| 20260830135750 | 84 | 253 | 4.3 | 7.8 | 0.00 | 0.00 | 0.00 | ||
| 20260830135349 | 84 | 249 | 4.3 | 7.8 | 0.00 | 0.00 | 0.00 | ||
| 20260830134946 | 84 | 256 | 4.3 | 7.0 | 0.00 | 0.00 | 0.00 | ||
| 20260830134144 | 83 | 266 | 7.8 | 13.0 | 0.00 | 0.00 | 0.00 | ||
| 20260830133742 | 84 | 236 | 7.8 | 10.4 | 0.00 | 0.00 | 0.00 | ||
| 20260830133333 | 83 | 272 | 7.0 | 9.6 | 0.00 | 0.00 | 0.00 | ||
| 20260830132931 | 83 | 263 | 6.1 | 8.7 | 0.00 | 0.00 | 0.00 | ||
| 20260830132530 | 83 | 257 | 5.2 | 7.8 | 0.00 | 0.00 | 0.00 | ||
| 20260830132129 | 83 | 264 | 6.1 | 10.4 | 0.00 | 0.00 | 0.00 | ||
| 20260830131726 | 83 | 246 | 6.1 | 10.4 | 0.00 | 0.00 | 0.00 | ||
| 20260830131325 | 83 | 252 | 2.6 | 4.3 | 0.00 | 0.00 | 0.00 | ||
| 20260830130923 | 83 | 252 | 7.0 | 7.8 | 0.00 | 0.00 | 0.00 | ||
| 20260830130521 | 84 | 231 | 5.2 | 10.4 | 0.00 | 0.00 | 0.00 | ||
| 20260830130119 | 83 | 257 | 5.2 | 7.8 | 0.00 | 0.00 | 0.00 | ||
| 20260830125717 | 83 | 271 | 3.5 | 7.0 | 0.00 | 0.00 | 0.00 | ||
| 20260830125309 | 83 | 226 | 7.8 | 11.3 | 0.00 | 0.00 | 0.00 | ||
| 20260830124907 | 83 | 252 | 7.0 | 9.6 | 0.00 | 0.00 | 0.00 | ||
| 20260830124506 | 83 | 248 | 7.0 | 9.6 | 0.00 | 0.00 | 0.00 | ||
| 20260830124103 | 83 | 211 | 5.2 | 7.8 | 0.00 | 0.00 | 0.00 | ||
| 20260830123701 | 83 | 277 | 6.1 | 9.6 | 0.00 | 0.00 | 0.00 | ||
| 20260830123300 | 83 | 262 | 8.7 | 12.2 | 0.00 | 0.00 | 0.00 | ||
| 20260830122859 | 83 | 243 | 4.3 | 8.7 | 0.00 | 0.00 | 0.00 | ||
| 20260830122456 | 82 | 254 | 7.0 | 9.6 | 0.00 | 0.00 | 0.00 | ||
| 20260830122055 | 83 | 226 | 5.2 | 7.0 | 0.00 | 0.00 | 0.00 | ||
| 20260830121654 | 83 | 245 | 4.3 | 8.7 | 0.00 | 0.00 | 0.00 | ||
| 20260830121246 | 83 | 268 | 6.1 | 8.7 | 0.00 | 0.00 | 0.00 | ||
| 20260830120843 | 84 | 215 | 2.6 | 7.0 | 0.00 | 0.00 | 0.00 | ||
| 20260830120442 | 82 | 251 | 5.2 | 8.7 | 0.00 | 0.00 | 0.00 | ||
| 20260830120041 | 83 | 273 | 6.1 | 8.7 | 0.00 | 0.00 | 0.00 | ||
| 20260830115639 | 82 | 277 | 5.2 | 8.7 | 0.00 | 0.00 | 0.00 | ||
| 20260830115236 | 83 | 276 | 6.1 | 11.3 | 0.00 | 0.00 | 0.00 | ||
| 20260830114835 | 82 | 213 | 5.2 | 10.4 | 0.00 | 0.00 | 0.00 | ||
| 20260830114033 | 82 | 233 | 6.1 | 7.8 | 0.00 | 0.00 | 0.00 | ||
| 20260830113631 | 82 | 246 | 7.0 | 9.6 | 0.00 | 0.00 | 0.00 | ||
| 20260830113222 | 82 | 228 | 10.4 | 14.8 | 0.00 | 0.00 | 0.00 | ||
| 20260830112819 | 82 | 259 | 3.5 | 7.0 | 0.00 | 0.00 | 0.00 | ||
| 20260830112418 | 82 | 258 | 5.2 | 9.6 | 0.00 | 0.00 | 0.00 | ||
| 20260830112017 | 82 | 203 | 4.3 | 7.8 | 0.00 | 0.00 | 0.00 | ||
| 20260830111615 | 82 | 241 | 6.1 | 11.3 | 0.00 | 0.00 | 0.00 | ||
| 20260830111214 | 82 | 244 | 3.5 | 6.1 | 0.00 | 0.00 | 0.00 | ||
| 20260830110411 | 82 | 248 | 4.3 | 7.8 | 0.00 | 0.00 | 0.00 | ||
| 20260830110009 | 81 | 247 | 6.1 | 9.6 | 0.00 | 0.00 | 0.00 | ||
| 20260830105607 | 81 | 222 | 6.1 | 9.6 | 0.00 | 0.00 | 0.00 | ||
| 20260830105159 | 82 | 246 | 5.2 | 7.0 | 0.00 | 0.00 | 0.00 | ||
| 20260830104757 | 82 | 228 | 2.6 | 7.0 | 0.00 | 0.00 | 0.00 | ||
| 20260830104355 | 81 | 267 | 7.0 | 8.7 | 0.00 | 0.00 | 0.00 | ||
| 20260830103954 | 81 | 251 | 6.1 | 9.6 | 0.00 | 0.00 | 0.00 | ||
| 20260830103552 | 81 | 244 | 4.3 | 7.8 | 0.00 | 0.00 | 0.00 | ||
| 20260830103151 | 81 | 239 | 6.1 | 9.6 | 0.00 | 0.00 | 0.00 | ||
| 20260830102749 | 81 | 252 | 4.3 | 7.8 | 0.00 | 0.00 | 0.00 | ||
| 20260830102347 | 80 | 249 | 6.1 | 8.7 | 0.00 | 0.00 | 0.00 | ||
| 20260830101946 | 80 | 206 | 7.8 | 14.8 | 0.00 | 0.00 | 0.00 | ||
| 20260830101544 | 81 | 232 | 6.1 | 8.7 | 0.00 | 0.00 | 0.00 | ||
| 20260830101136 | 81 | 263 | 5.2 | 10.4 | 0.00 | 0.00 | 0.00 | ||
| 20260830100733 | 80 | 241 | 4.3 | 6.1 | 0.00 | 0.00 | 0.00 | ||
| 20260830100332 | 80 | 218 | 5.2 | 7.8 | 0.00 | 0.00 | 0.00 | ||
| 20260830095931 | 81 | 177 | 5.2 | 8.7 | 0.00 | 0.00 | 0.00 | ||
| 20260830095529 | 81 | 165 | 7.0 | 8.7 | 0.00 | 0.00 | 0.00 | ||
| 20260830095127 | 80 | 223 | 5.2 | 8.7 | 0.00 | 0.00 | 0.00 | ||
| 20260830094725 | 80 | 236 | 4.3 | 8.7 | 0.00 | 0.00 | 0.00 | ||
| 20260830094324 | 79 | 215 | 5.2 | 7.8 | 0.00 | 0.00 | 0.00 | ||
| 20260830093923 | 79 | 239 | 7.8 | 12.2 | 0.00 | 0.00 | 0.00 | ||
| 20260830093520 | 79 | 255 | 6.1 | 8.7 | 0.00 | 0.00 | 0.00 | ||
| 20260830093112 | 79 | 251 | 4.3 | 8.7 | 0.00 | 0.00 | 0.00 | ||
| 20260830092710 | 79 | 241 | 4.3 | 7.8 | 0.00 | 0.00 | 0.00 | ||
| 20260830092309 | 79 | 259 | 2.6 | 7.8 | 0.00 | 0.00 | 0.00 | ||
| 20260830091908 | 79 | 235 | 3.5 | 6.1 | 0.00 | 0.00 | 0.00 | ||
| 20260830091505 | 79 | 202 | 2.6 | 4.3 | 0.00 | 0.00 | 0.00 | ||
| 20260830091104 | 78 | 223 | 4.3 | 7.0 | 0.00 | 0.00 | 0.00 | ||
| 20260830090702 | 78 | 245 | 2.6 | 5.2 | 0.00 | 0.00 | 0.00 | ||
| 20260830090301 | 78 | 180 | 3.5 | 6.1 | 0.00 | 0.00 | 0.00 | ||
| 20260830085859 | 78 | 203 | 3.5 | 7.0 | 0.00 | 0.00 | 0.00 | ||
| 20260830085457 | 78 | 231 | 2.6 | 5.2 | 0.00 | 0.00 | 0.00 | ||
| 20260830085049 | 78 | 188 | 4.3 | 5.2 | 0.00 | 0.00 | 0.00 | ||
| 20260830084647 | 78 | 180 | 1.7 | 3.5 | 0.00 | 0.00 | 0.00 | ||
| 20260830084245 | 78 | 164 | 1.7 | 3.5 | 0.00 | 0.00 | 0.00 | ||
| 20260830083844 | 78 | 143 | 3.5 | 7.0 | 0.00 | 0.00 | 0.00 | ||
| 20260830083442 | 78 | 129 | 3.5 | 6.1 | 0.00 | 0.00 | 0.00 | ||
| 20260830083041 | 78 | 129 | 3.5 | 7.0 | 0.00 | 0.00 | 0.00 | ||
| 20260830082638 | 78 | 111 | 2.6 | 5.2 | 0.00 | 0.00 | 0.00 | ||
| 20260830082237 | 77 | 111 | 2.6 | 4.3 | 0.00 | 0.00 | 0.00 | ||
| 20260830081836 | 77 | 111 | 2.6 | 3.5 | 0.00 | 0.00 | 0.00 | ||
| 20260830081434 | 77 | 111 | 2.6 | 7.0 | 0.00 | 0.00 | 0.00 | ||
| 20260830081026 | 77 | 111 | 1.7 | 3.5 | 0.00 | 0.00 | 0.00 | ||
| 20260830080623 | 77 | 111 | 2.6 | 3.5 | 0.00 | 0.00 | 0.00 | ||
| 20260830080223 | 77 | 111 | 3.5 | 4.3 | 0.00 | 0.00 | 0.00 | ||
| 20260830075822 | 76 | 111 | 2.6 | 5.2 | 0.00 | 0.00 | 0.00 | ||
| 20260830075420 | 76 | 111 | 3.5 | 5.2 | 0.00 | 0.00 | 0.00 | ||
| 20260830075018 | 76 | 135 | 4.3 | 6.1 | 0.00 | 0.00 | 0.00 | ||
| 20260830074616 | 76 | 135 | 2.6 | 4.3 | 0.00 | 0.00 | 0.00 | ||
| 20260830074215 | 75 | 135 | 3.5 | 5.2 | 0.00 | 0.00 | 0.00 | ||
| 20260830073814 | 75 | 151 | 2.6 | 3.5 | 0.00 | 0.00 | 0.00 | ||
| 20260830073411 | 75 | 157 | 4.3 | 6.1 | 0.00 | 0.00 | 0.00 | ||
| 20260830073003 | 76 | 157 | 0.9 | 1.7 | 0.00 | 0.00 | 0.00 | ||
| 20260830072601 | 75 | 157 | 0.9 | 2.6 | 0.00 | 0.00 | 0.00 | ||
| 20260830072200 | 75 | 157 | 0.9 | 2.6 | 0.00 | 0.00 | 0.00 | ||
| 20260830071758 | 74 | 156 | 1.7 | 5.2 | 0.00 | 0.00 | 0.00 | ||
| 20260830071356 | 74 | 157 | 0.9 | 3.5 | 0.00 | 0.00 | 0.00 | ||
| 20260830070955 | 74 | 157 | 1.7 | 3.5 | 0.00 | 0.00 | 0.00 | ||
| 20260830070553 | 73 | 169 | 4.3 | 6.1 | 0.00 | 0.00 | 0.00 | ||
| 20260830070152 | 73 | 137 | 4.3 | 7.8 | 0.00 | 0.00 | 0.00 | ||
| 20260830065750 | 74 | 135 | 3.5 | 6.1 | 0.00 | 0.00 | 0.00 | ||
| 20260830065348 | 74 | 135 | 3.5 | 5.2 | 0.00 | 0.00 | 0.00 | ||
| 20260830064940 | 73 | 135 | 3.5 | 6.1 | 0.00 | 0.00 | 0.00 | ||
| 20260830064539 | 74 | 140 | 4.3 | 7.8 | 0.00 | 0.00 | 0.00 | ||
| 20260830064136 | 76 | 135 | 4.3 | 7.0 | 0.00 | 0.00 | 0.00 | ||
| 20260830063735 | 73 | 157 | 4.3 | 5.2 | 0.00 | 0.00 | 0.00 | ||
| 20260830063334 | 71 | 153 | 4.3 | 8.7 | 0.00 | 0.00 | 0.00 | ||
| 20260830062933 | 70 | 140 | 4.3 | 7.0 | 0.00 | 0.00 | 0.00 | ||
| 20260830062530 | 70 | 153 | 4.3 | 7.0 | 0.00 | 0.00 | 0.00 | ||
| 20260830062129 | 71 | 147 | 2.6 | 5.2 | 0.00 | 0.00 | 0.00 | ||
| 20260830061728 | 71 | 157 | 1.7 | 4.3 | 0.00 | 0.00 | 0.00 | ||
| 20260830061326 | 70 | 156 | 4.3 | 7.8 | 0.00 | 0.00 | 0.00 | ||
| 20260830060917 | 69 | 155 | 4.3 | 7.0 | 0.00 | 0.00 | 0.00 | ||
| 20260830060515 | 69 | 150 | 5.2 | 7.8 | 0.00 | 0.00 | 0.00 | ||
| 20260830060114 | 69 | 157 | 4.3 | 7.8 | 0.00 | 0.00 | 0.00 | ||
| 20260830055713 | 69 | 170 | 1.7 | 5.2 | 0.00 | 0.00 | 0.00 | ||
| 20260830055311 | 69 | 164 | 3.5 | 7.0 | 0.00 | 0.00 | 0.00 | ||
| 20260830054909 | 69 | 132 | 3.5 | 7.0 | 0.00 | 0.00 | 0.00 | ||
| 20260830054507 | 70 | 135 | 2.6 | 6.1 | 0.00 | 0.00 | 0.00 | ||
| 20260830054106 | 70 | 151 | 3.5 | 6.1 | 0.00 | 0.00 | 0.00 |